User: anonymous   Login
Location: Unspecified
(0.0000°N, 0.0000°E)
Time: 22:35:02
(UTC+00:00)
Language:

CASSIOPE - Orbit

View from above orbital plane
View from above orbital plane
View from above satellite
View from above satellite

Ground track
Ground track

The orbit data is extracted from the following two-line orbital elements,

1 39265U 13055A   18174.93747602 +.00001687 +00000-0 +49055-4 0  9997
2 39265 080.9686 349.5661 0675996 254.7114 097.8421 14.25508080244435
Epoch (UTC): 23 June 2018 22:29:57
Eccentricity: 0.0675996
inclination: 80.9686°
perigee height: 321 km
apogee height: 1292 km
right ascension of ascending node: 349.5661°
argument of perigee: 254.7114°
revolutions per day: 14.25508080
mean anomaly at epoch: 97.8421°
orbit number at epoch: 24443

The dashed part of the orbit path shows where the satellite is in the earth's shadow,  

DLR